Location: Châteauvieux
(47.2310°N, 1.3828°E)
Time: 23:22:21
(UTC+00:00)

Cosmos 1777 Rocket - Pass Details

Date: 15 May 2026
Orbit: 754 x 771 km, 74.0° (Epoch: 6 June)

Event Time Altitude Azimuth Distance (km) Brightness Sun altitude
Rises 21:33:07 0° 336° (NNW) 3,241 8.9 -16.9°
Reaches altitude 10° 21:35:31 10° 335° (NNW) 2,308 7.8 -17.1°
Maximum altitude 21:40:44 76° 250° (WSW) 788 4.0 -17.6°
Enters shadow 21:43:21 30° 170° (S) 1,342 4.7 -17.8°
